New Jersey Responder — WBO8578 — position and weather

sailwx.info

Track history (hours):
 
Tides and Currents Weather Stations Pressure Air Temp Water Temp Dewpoint Dewpoint Depression Visibility Wind Speed Wind Dir Waves Ship Positions

New Jersey Responder

Owner: MARINE SPILL RESPONSE CORP, HERNDON, VA. More information available from US FCC via Universal Licensing System and Coast Guard Vessel Documentation Center.

Last reported at 2017-Apr-25 16:16 UTC. Time now 2017-Apr-30 14:54 UTC.
Position N 40°30' W 074°10'.

; draft 4 m.

Type: Pollution control. MMSI: 366594000.

Date/timePositionNaut miles runAvg speedWind from/ knotsBaromVisibWave heightAir tempDewpointWater temp
2017-Apr-25 16:16N 40°30' W 074°10'310.1
2017-Apr-25 15:58N 40°29' W 074°06'4 8.3
2017-Apr-25 15:30N 40°28' W 074°02'1 1.0
2017-Apr-25 14:57N 40°28' W 074°02'4 7.5
2017-Apr-25 14:28N 40°28' W 073°57'2 2.0
2017-Apr-25 13:17N 40°29' W 073°60'12 0.4
2017-Apr-24 07:14N 40°32' W 074°15'0 0.0
2017-Apr-24 06:50N 40°32' W 074°15'0 0.0
2017-Apr-24 06:11N 40°32' W 074°15'0 0.0
2017-Apr-24 05:47N 40°32' W 074°15'  
Track history (hours):
 
Tides and Currents Weather Stations Pressure Air Temp Water Temp Dewpoint Dewpoint Depression Visibility Wind Speed Wind Dir Waves Ship Positions

New Jersey Responder

Owner: MARINE SPILL RESPONSE CORP, HERNDON, VA. More information available from US FCC via Universal Licensing System and Coast Guard Vessel Documentation Center.

Last reported at 2017-Apr-25 16:16 UTC. Time now 2017-Apr-30 14:54 UTC.
Position N 40°30' W 074°10'.

; draft 4 m.

Type: Pollution control. MMSI: 366594000.

Date/timePositionNaut miles runAvg speedWind from/ knotsBaromVisibWave heightAir tempDewpointWater temp
2017-Apr-25 16:16N 40°30' W 074°10'310.1
2017-Apr-25 15:58N 40°29' W 074°06'4 8.3
2017-Apr-25 15:30N 40°28' W 074°02'1 1.0
2017-Apr-25 14:57N 40°28' W 074°02'4 7.5
2017-Apr-25 14:28N 40°28' W 073°57'2 2.0
2017-Apr-25 13:17N 40°29' W 073°60'12 0.4
2017-Apr-24 07:14N 40°32' W 074°15'0 0.0
2017-Apr-24 06:50N 40°32' W 074°15'0 0.0
2017-Apr-24 06:11N 40°32' W 074°15'0 0.0
2017-Apr-24 05:47N 40°32' W 074°15'  

Dump ship's entire track history